Weather History for Mattoon, IL

Change the Weather History Date:

Friday, October 26, 2012

  Actual Average Record
Temperature  
Mean Temperature 42 °F 51 °F  
Max Temperature 48 °F 62 °F 83 °F (1963)
Min Temperature 35 °F 41 °F 19 °F (1962)
Degree Days  
Heating Degree Days 23 14  
Month to date heating degree days 275 261  
Since 1 July heating degree days 359 332  
Cooling Degree Days 0 0  
Month to date cooling degree days 6 15  
Year to date cooling degree days 1382 1053  
Moisture  
Dew Point 36 °F    
Average Humidity 76    
Maximum Humidity 92    
Minimum Humidity 60    
Precipitation  
Precipitation 0.03 in 0.10 in 2.17 in (1991)
Month to date precipitation 4.01 2.40  
Year to date precipitation 29.37 31.37  
Sea Level Pressure  
Sea Level Pressure 30.23 in    
Wind  
Wind Speed 15 mph (North)    
Max Wind Speed 29 mph    
Max Gust Speed 36 mph    
Visibility 10 miles    
Events Rain    
T = Trace of Precipitation, MM = Missing Value Source: NWS Daily Summary

Daily Weather History Graph

Daily Weather History Graph

Search for Another Location

Airport:

Trip Planner

Search our weather history database for the weather conditions in past years. The results will help you decide how hot, cold, wet, or windy it might be!

Date:

Astronomy

Oct. 26, 2012 Rise Set
Actual Time 7:15 AM CDT 5:58 PM CDT
Civil Twilight 6:47 AM CDT 6:25 PM CDT
Nautical Twilight 6:16 AM CDT 6:57 PM CDT
Astronomical Twilight 5:44 AM CDT 7:28 PM CDT
Moon 4:13 PM CDT (10/26) 4:11 AM CDT (10/26)
Length of Visible Light 11h 38m
Length of Day
10h 43m
Waxing Gibbous, 91% of the Moon is Illuminated
Oct 26
Waxing Gibbous
Oct 29
Full
Nov 6
Last Quarter
Nov 13
New
Nov 20
First Quarter

Hourly Weather History & Observations

Time (CDT) Temp. Windchill Dew Point Humidity Pressure Visibility Wind Dir Wind Speed Gust Speed Precip Events Conditions
12:19 AM 44.6 °F 36.9 °F 42.8 °F 93% 30.09 in 5.0 mi NNW 18.4 mph - 0.06 in Rain Heavy Rain
12:41 AM 44.6 °F 37.2 °F 42.8 °F 93% 30.11 in 6.0 mi NNW 17.3 mph 26.5 mph 0.10 in Rain Light Rain
12:53 AM 44.1 °F 36.5 °F 42.1 °F 93% 30.11 in 10.0 mi NNW 17.3 mph - 0.10 in Rain Light Rain
1:14 AM 44.6 °F 37.8 °F 42.8 °F 93% 30.13 in 10.0 mi NNW 15.0 mph - 0.01 in Rain Light Rain
1:53 AM 45.0 °F 37.9 °F 43.0 °F 93% 30.11 in 10.0 mi NNW 16.1 mph 23.0 mph 0.02 in Rain Light Rain
2:53 AM 43.0 °F 34.5 °F 39.0 °F 86% 30.16 in 10.0 mi NNW 19.6 mph 26.5 mph 0.00 in   Overcast
3:53 AM 42.1 °F 32.8 °F 37.9 °F 85% 30.19 in 10.0 mi NNW 21.9 mph 26.5 mph 0.01 in   Overcast
4:53 AM 41.0 °F 32.5 °F 37.9 °F 89% 30.18 in 10.0 mi North 17.3 mph 25.3 mph N/A   Overcast
5:30 AM 39.2 °F 28.7 °F 33.8 °F 81% 30.20 in 10.0 mi North 23.0 mph 29.9 mph N/A   Scattered Clouds
5:53 AM 37.9 °F 28.2 °F 33.1 °F 83% 30.21 in 10.0 mi North 18.4 mph 27.6 mph N/A   Clear
6:53 AM 37.0 °F 28.9 °F 33.1 °F 86% 30.23 in 10.0 mi North 12.7 mph - N/A   Clear
7:15 AM 37.4 °F 28.9 °F 33.8 °F 87% 30.24 in 10.0 mi North 13.8 mph - N/A   Mostly Cloudy
7:53 AM 39.0 °F 30.6 °F 35.1 °F 86% 30.27 in 10.0 mi North 15.0 mph - N/A   Overcast
8:53 AM 39.0 °F 29.6 °F 34.0 °F 82% 30.29 in 10.0 mi North 18.4 mph - N/A   Overcast
9:22 AM 39.2 °F 30.2 °F 33.8 °F 81% 30.29 in 10.0 mi North 17.3 mph - N/A   Scattered Clouds
9:32 AM 39.2 °F 30.8 °F 33.8 °F 81% 30.29 in 10.0 mi North 15.0 mph 21.9 mph N/A   Mostly Cloudy
9:53 AM 41.0 °F 33.1 °F 35.1 °F 79% 30.31 in 10.0 mi North 15.0 mph - N/A   Overcast
10:53 AM 41.0 °F 32.8 °F 35.1 °F 79% 30.31 in 10.0 mi North 16.1 mph - N/A   Overcast
11:53 AM 43.0 °F 36.0 °F 36.0 °F 76% 30.31 in 10.0 mi North 13.8 mph - N/A   Overcast
12:53 PM 44.1 °F 36.2 °F 35.1 °F 71% 30.29 in 10.0 mi North 18.4 mph 25.3 mph N/A   Overcast
1:53 PM 46.0 °F 38.8 °F 35.1 °F 66% 30.27 in 10.0 mi North 18.4 mph - N/A   Scattered Clouds
2:53 PM 46.9 °F - 34.0 °F 61% 30.26 in 10.0 mi North 17.3 mph 23.0 mph N/A   Clear
3:53 PM 46.9 °F - 34.0 °F 61% 30.25 in 10.0 mi North 17.3 mph - N/A   Clear
4:53 PM 46.9 °F - 33.1 °F 59% 30.25 in 10.0 mi North 16.1 mph - N/A   Clear
5:53 PM 44.1 °F 39.0 °F 36.0 °F 73% 30.25 in 10.0 mi North 9.2 mph - N/A   Clear
6:53 PM 42.1 °F 36.6 °F 36.0 °F 79% 30.26 in 10.0 mi North 9.2 mph - N/A   Clear
7:53 PM 39.9 °F 33.9 °F 36.0 °F 86% 30.26 in 10.0 mi North 9.2 mph - N/A   Clear
8:53 PM 39.0 °F 32.8 °F 35.1 °F 86% 30.27 in 10.0 mi North 9.2 mph - N/A   Clear
9:53 PM 39.0 °F 32.3 °F 35.1 °F 86% 30.27 in 10.0 mi North 10.4 mph - N/A   Clear
10:53 PM 37.0 °F 30.4 °F 35.1 °F 93% 30.28 in 10.0 mi North 9.2 mph - N/A   Clear
11:53 PM 37.0 °F 29.8 °F 34.0 °F 89% 30.27 in 10.0 mi North 10.4 mph - N/A   Clear